Voltar ao catálogo

HIMAWARI 4 AKM

AtivoMEO
NORAD 20317·ROCKET BODY·🇯🇵 Japan

Lançado Sep 5, 1989 de Tanegashima Space Center

Loading…

Próximas Passagens (próximas 24 horas)

TLE

AtualizadoSource: Space-Track

Época: Sep 13, 2026, 11:46 UTC

1 20317U 89070C   26256.49077650 -.00000286  00000-0  00000-0 0  9993
2 20317  12.5135 336.6204 0239196  65.8543 299.0722  0.98765424 47532

Acompanhe HIMAWARI 4 AKM em tempo real com AllMySat

Download on the App Store